Lid_Strength_Index
-0 -0 -1 -1 -1 -0 -1 -1 -0 -0 -0 -0 -0 -1 -1 -1 -1 1 6 3 3 -1 1 6 7 7 7 8 8 9 13 14 13 13 12 10 10 10 9 8 9 8 7 6 4
-0 -0 -0 -1 -1 -1 -1 -1 -0 -0 -0 -0 -0 -1 -1 -1 2 4 -0 -2 -2 -0 6 8 8 8 10 9 9 11 13 13 12 12 12 10 11 10 10 10 10 8 6 4 5
-0 -0 -1 -1 -1 -1 -1 -1 -0 -0 -0 -0 -1 1 -1 -0 4 5 -1 -2 -1 1 5 6 7 8 10 10 11 11 12 11 11 11 10 10 11 10 10 12 9 8 6 5 6
1 -0 -1 -1 -1 -1 -1 -1 -0 -0 -0 -1 -1 -0 -1 2 12 4 -1 -1 -1 4 5 7 8 10 11 11 10 12 11 11 10 10 10 11 10 11 10 9 8 8 5 5 5
1 0 0 -1 -1 -1 -1 -1 -0 -0 -0 -1 -1 -1 2 7 7 3 -1 0 4 5 7 8 9 10 12 11 10 12 12 11 10 10 11 10 11 11 10 9 9 9 5 5 4
1 1 -0 -1 -1 -1 -1 -1 -0 -0 -0 -1 -1 -1 6 10 3 2 3 4 5 6 7 7 9 9 10 11 11 10 10 11 10 11 11 12 13 12 11 11 10 9 8 5 5
1 1 0 -0 -1 -1 -1 -1 -0 -0 -0 -1 -1 0 6 8 4 4 4 5 5 6 7 7 7 9 10 10 9 10 12 12 11 11 11 11 13 12 11 10 11 11 10 8 5
1 1 1 -1 -1 -1 -1 -1 -1 -1 -0 -1 -1 3 10 3 4 4 5 6 5 5 5 6 6 7 9 9 10 12 13 16 13 11 11 12 15 12 11 11 11 11 12 10 9
1 1 1 -0 0 -1 -1 -1 -1 -1 -1 -1 3 6 10 2 5 4 5 6 6 6 6 5 7 9 10 13 14 14 17 16 14 11 11 12 14 11 10 11 11 11 11 11 11
0 1 1 1 1 0 -1 -0 -1 -0 -0 0 3 8 8 8 5 5 5 5 7 7 8 8 10 12 14 15 18 16 16 15 16 12 13 14 13 11 11 11 11 11 11 11 10
1 1 1 1 1 1 1 3 7 8 5 9 9 9 7 5 4 6 5 6 7 9 13 11 13 15 13 13 14 15 15 16 15 12 12 13 13 12 11 12 11 11 11 11 10
1 1 1 1 0 0 3 5 7 7 10 6 6 7 5 5 7 6 6 9 10 12 11 12 16 12 12 13 13 14 15 16 14 13 13 14 14 12 12 11 10 10 11 11 11
0 1 1 1 0 1 4 4 2 3 10 8 6 7 6 5 8 8 7 9 11 12 12 14 13 10 11 13 13 14 15 15 14 14 15 15 16 15 13 12 11 10 10 10 11
2 1 0 1 3 3 5 3 2 3 12 11 8 7 6 6 9 5 6 8 11 12 12 13 11 11 12 13 13 15 13 13 14 16 18 16 20 17 14 13 12 11 10 12 11
3 3 0 0 3 5 4 2 3 6 19 10 8 5 6 9 9 8 7 8 11 11 12 13 12 12 13 13 12 14 12 13 14 16 17 18 18 17 16 15 13 12 11 11 11
4 3 3 1 2 3 1 2 4 12 21 12 9 9 9 9 9 8 8 8 9 11 12 12 11 11 11 12 12 11 13 13 15 16 20 17 18 19 16 14 14 12 11 10 9
4 4 4 3 4 1 1 4 13 18 12 13 12 10 10 11 10 10 10 11 12 14 15 13 13 12 11 12 12 13 15 19 20 20 20 18 19 17 14 13 12 11 11 10 9
5 4 5 5 4 3 3 9 17 14 14 10 10 11 13 11 11 10 11 12 11 14 14 15 16 12 11 12 13 14 14 18 23 21 20 17 19 16 13 11 10 10 10 10 11
4 5 5 4 3 3 7 15 15 14 11 11 11 13 13 12 13 13 13 12 11 12 14 15 15 12 11 11 10 13 15 13 17 23 21 18 17 14 12 11 11 11 11 12 10
7 8 8 3 3 5 11 14 12 9 9 10 14 12 15 13 14 13 13 12 12 10 11 13 16 13 12 10 11 12 11 15 16 22 23 19 19 17 13 13 11 11 10 10 9
7 11 7 3 4 8 14 13 11 8 8 11 12 13 12 13 13 13 14 13 11 11 11 13 15 16 14 15 15 14 15 15 14 16 19 21 18 14 13 11 11 11 10 10 10
8 15 6 3 10 12 14 11 8 9 8 9 10 11 12 12 13 14 13 13 10 11 13 12 15 19 16 13 13 13 14 14 17 19 18 18 17 12 11 11 10 11 10 11 11
10 10 6 5 13 12 11 10 9 10 9 10 11 10 9 12 14 12 11 10 9 11 12 11 15 21 17 14 13 15 13 12 13 15 17 19 18 12 12 11 10 10 11 10 10
9 13 10 7 9 11 11 11 11 8 9 8 10 9 11 12 11 13 12 10 9 9 9 9 14 16 17 16 14 15 14 13 13 18 17 16 16 13 12 12 11 10 10 10 11
8 11 10 14 13 10 9 10 11 12 9 8 10 10 11 14 13 13 11 10 9 9 10 10 15 14 13 13 13 14 14 13 14 14 16 15 15 13 11 11 11 11 10 11 11
11 11 9 11 11 11 10 12 11 10 10 11 11 10 10 12 12 13 11 11 12 10 10 11 15 14 15 13 13 15 13 14 14 13 13 14 13 10 11 11 12 12 12 12 12
7 6 8 11 12 12 13 12 11 10 9 9 9 10 11 10 10 10 8 9 10 11 11 12 14 15 17 15 15 17 15 13 14 13 12 14 12 12 13 12 13 13 12 12 12